Change the Weather History Date:

Thursday, October 31, 2013

  Actual Average Record
Temperature  
Mean Temperature 61 °F 61 °F  
Max Temperature 75 °F 74 °F 95 °F (2010)
Min Temperature 47 °F 49 °F 21 °F (1917)
Degree Days  
Heating Degree Days 4 5  
Month to date heating degree days 82 80  
Since 1 July heating degree days 82 91  
Cooling Degree Days 0 2  
Month to date cooling degree days 137 119  
Year to date cooling degree days 2851 2484  
Growing Degree Days 13 (Base 50)    
Moisture  
Dew Point 42 °F    
Average Humidity 51    
Maximum Humidity 84    
Minimum Humidity 18    
Precipitation  
Precipitation 0.00 in 0.07 in 1.29 in (1998)
Month to date precipitation 1.46 2.73  
Year to date precipitation 17.84 19.26  
Snow  
Snow 0.00 in 0.00 in 0.00 in (2002)
Month to date snowfall 0.0 0.0  
Since 1 July snowfall 0.0 0.0  
Snow Depth 0.00 in    
Sea Level Pressure  
Sea Level Pressure 29.85 in    
Wind  
Wind Speed 12 mph (West)    
Max Wind Speed 24 mph    
Max Gust Speed 31 mph    
Visibility 10 miles    
Events      
T = Trace of Precipitation, MM = Missing Value Source: NWS Daily Summary

Daily Weather History Graph

Daily Weather History Graph

Search for Another Location

Airport or City:

Trip Planner

Search our weather history database for the weather conditions in past years. The results will help you decide how hot, cold, wet, or windy it might be!

Date:

Astronomy

Oct. 31, 2013 Rise Set
Actual Time 7:57 AM CDT 6:53 PM CDT
Civil Twilight 7:32 AM CDT 7:18 PM CDT
Nautical Twilight 7:03 AM CDT 7:47 PM CDT
Astronomical Twilight 6:35 AM CDT 8:15 PM CDT
Moon 4:59 AM CDT (10/31) 5:03 PM CDT (10/31)
Length of Visible Light 11h 46m
Length of Day
10h 56m
Waning Crescent, 10% of the Moon is Illuminated
Oct 31
Waning Crescent
Nov 3
New
Nov 9
First Quarter
Nov 17
Full
Nov 25
Last Quarter

Hourly Weather History & Observations

Time (CDT) Temp. Dew Point Humidity Pressure Visibility Wind Dir Wind Speed Gust Speed Precip Events Conditions
12:51 AM 70.0 °F 61.0 °F 73% 29.75 in 10.0 mi South 11.5 mph - N/A   Clear
1:51 AM 71.1 °F 60.1 °F 68% 29.76 in 10.0 mi SSW 15.0 mph 21.9 mph N/A   Clear
2:19 AM 69.8 °F 62.6 °F 78% 29.83 in 10.0 mi WNW 18.4 mph 24.2 mph N/A   Partly Cloudy
2:51 AM 69.1 °F 60.1 °F 73% 29.78 in 10.0 mi West 16.1 mph 25.3 mph N/A   Clear
3:51 AM 71.1 °F 57.0 °F 61% 29.76 in 10.0 mi WSW 13.8 mph - N/A   Scattered Clouds
4:51 AM 68.0 °F 57.9 °F 70% 29.76 in 10.0 mi WSW 9.2 mph - N/A   Clear
5:51 AM 64.9 °F 59.0 °F 81% 29.79 in 10.0 mi WSW 4.6 mph - N/A   Clear
6:51 AM 66.0 °F 55.0 °F 68% 29.83 in 10.0 mi West 12.7 mph - N/A   Clear
7:51 AM 63.0 °F 48.9 °F 60% 29.88 in 10.0 mi WNW 11.5 mph - N/A   Clear
8:51 AM 61.0 °F 39.9 °F 46% 29.92 in 10.0 mi West 12.7 mph - N/A   Clear
9:51 AM 63.0 °F 34.0 °F 34% 29.95 in 10.0 mi West 10.4 mph - N/A   Clear
10:51 AM 66.0 °F 33.1 °F 29% 29.94 in 10.0 mi WNW 16.1 mph 26.5 mph N/A   Clear
11:51 AM 69.1 °F 32.0 °F 25% 29.93 in 10.0 mi WNW 19.6 mph 25.3 mph N/A   Clear
12:51 PM 71.1 °F 30.0 °F 22% 29.91 in 10.0 mi WNW 20.7 mph 27.6 mph N/A   Clear
1:51 PM 73.0 °F 28.9 °F 20% 29.87 in 10.0 mi WNW 18.4 mph 27.6 mph N/A   Clear
2:51 PM 73.9 °F 28.9 °F 19% 29.85 in 10.0 mi WNW 19.6 mph 25.3 mph N/A   Clear
3:51 PM 75.0 °F 28.0 °F 18% 29.83 in 10.0 mi WNW 16.1 mph 24.2 mph N/A   Clear
4:51 PM 75.0 °F 28.0 °F 18% 29.83 in 10.0 mi WNW 15.0 mph 21.9 mph N/A   Clear
5:51 PM 73.0 °F 28.9 °F 20% 29.84 in 10.0 mi WNW 8.1 mph - N/A   Clear
6:51 PM 64.9 °F 34.0 °F 32% 29.85 in 10.0 mi WSW 6.9 mph - N/A   Clear
7:51 PM 57.9 °F 35.1 °F 42% 29.87 in 10.0 mi SW 8.1 mph - N/A   Clear
8:51 PM 53.1 °F 39.0 °F 59% 29.87 in 10.0 mi SW 5.8 mph - N/A   Clear
9:51 PM 51.1 °F 37.9 °F 61% 29.87 in 10.0 mi SSW 10.4 mph - N/A   Clear
10:51 PM 53.1 °F 36.0 °F 52% 29.88 in 10.0 mi South 8.1 mph - N/A   Clear
11:51 PM 48.9 °F 37.0 °F 64% 29.89 in 10.0 mi SW 6.9 mph - N/A   Clear